Terminal Aerodrome Forecast
Issued by NWS

Home | Current Version | Previous Version | Text Only | Print | Product List | Glossary On
Versions: 1 2 3 4 5 6 7 8 9 10 11 12 13 14
353
FTUS46 KHNX 060756 AAA
TAFVIS
TAF AMD
KVIS 060756Z 0608/0706 VRB03KT 2SM BR SCT200
      TEMPO 0613/0617 1/2SM FG
     FM061800 30004KT 5SM BR SCT200
     FM062100 29003KT P6SM SKC=

USA.gov is the U.S. government's official web portal to all federal, state and local government web resources and services.